Regional Weather Roundup
Issued by NWS Albany, NY

Home | Current Version | Previous Version | Text Only | Print | Product List | Glossary On
Versions: 1 2 3 4 5 6 7 8 9 10 11 12 13 14 15 16 17 18 19 20 21 22 23 24 25 26 27 28 29 30 31 32 33 34 35 36 37 38 39 40 41 42 43 44 45 46 47 48 49 50
000
ASUS41 KALY 172310
RWRALY

NEW YORK STATE HOURLY WEATHER ROUNDUP
NATIONAL WEATHER SERVICE ALBANY NY
600 PM EST WED DEC 17 2014

NOTE: "FAIR" INDICATES FEW OR NO CLOUDS BELOW 12,000 FEET WITH NO
SIGNIFICANT WEATHER AND/OR NO OBSTRUCTIONS TO VISIBILITY.

NYZ032-033-038>043-046>054-057>066-NYZ062>081-180000-
EAST


CITY           SKY/WX    TMP DP  RH WIND       PRES   REMARKS
ALBANY         LGT RAIN  38  31  76 W13       29.86R WCI  30
GLENS FALLS    LGT RAIN  40  34  79 SW7       29.80R
POUGHKEEPSIE   CLOUDY    45  33  63 W14G20    29.86R
NEWBURGH       MOCLDY    41  36  81 NW12G23   29.86R
MONTGOMERY     CLOUDY    43  33  68 NW6       29.86R
WHITE PLAINS   MOCLDY    45  33  63 NW16      29.84R
ISLIP          MOCLDY    46  37  71 W7        29.83R
NEW YORK CITY  CLOUDY    48  36  63 NW13      29.85R
CENTRAL PARK   CLOUDY    49  34  56 VRB6G20   29.89R
$$

NYZ005>009-017-018-044>046-055-056-180000-
CENTRAL


CITY           SKY/WX    TMP DP  RH WIND       PRES   REMARKS
FULTON         LGT SNOW  34  31  88 SW9       29.88S FOG     WCI  27
SYRACUSE       FLURRIES  34  32  92 W14       29.89R WCI  25
ROME           MIX PCPN  33  33 100 W9        29.90R WCI  25
ELMIRA         CLOUDY    37  27  67 W8        29.92R WCI  31
BINGHAMTON     CLOUDY    32  31  96 W6        29.85S WCI  26
MONTICELLO     MOCLDY    36  34  93 W13       29.85F WCI  27
$$

NYZ026>034-041>043-180000-
NORTH


CITY           SKY/WX    TMP DP  RH WIND       PRES   REMARKS
WATERTOWN      LGT RAIN  38  32  79 W14G23    29.84R WCI  30
FORT DRUM      NOT AVBL
MASSENA        CLOUDY    35  34  96 W6        29.79S WCI  30
SARANAC LAKE   LGT SNOW  33  32  96 SW7       29.73R WCI  27
PLATTSBURGH    CLOUDY    38  36  92 CALM      29.76R
$$

NYZ001>004-010>016-019>021-180000-
WEST


CITY           SKY/WX    TMP DP  RH WIND       PRES   REMARKS
NIAGARA FALLS  FLURRIES  33  29  85 W16       29.95R WCI  23
BUFFALO        FLURRIES  33  27  78 W21G35    29.95R WCI  21
DUNKIRK        MIX PCPN  33  28  81 SW20G31   30.00R WCI  21
JAMESTOWN      CLOUDY    28  25  86 W20       29.97R WCI  15
WELLSVILLE     CLOUDY    29  24  82 W18G26    29.91R WCI  16
ROCHESTER      FLURRIES  34  30  85 W17       29.91R WCI  23
PENN YAN       CLOUDY    36  26  67 W14G22    29.90R WCI  27
$$

             KEY
       WCI = WIND CHILL INDEX
       VSB = VISIBILITY
       HX  = HEAT INDEX
$$


USA.gov is the U.S. government's official web portal to all federal, state and local government web resources and services.